#timestamp,LO_Frequency,Hit 
1500246015.6,286047016.9,N
1500246035.4,286047016.8,N
1500246055.3,286047017.0,N
1500246075.1,286047018.3,N
1500246076.0,286047018.3,N
1500246095.8,286047016.0,N
1500246115.7,286047017.0,N
1500246135.5,286047014.5,N
1500246155.3,286047018.5,N
1500246175.2,286047017.7,N
1500246195.0,286047017.7,N
1500246195.9,286047017.7,N
1500246215.8,286047017.4,N
1500246235.6,286047018.5,N
1500246255.4,286047018.6,N
1500246275.3,286047018.7,N
1500246295.1,286047018.5,N
1500246315.9,286047018.5,N
1500246335.7,286047019.7,N
1500246355.5,286047020.1,N
1500246375.4,286047017.5,N
1500246395.2,286047017.7,N
1500246415.0,286047017.5,N
1500246415.9,286047017.5,N
1500246435.8,286047017.4,N
1500246455.6,286047018.2,N
1500246475.5,286047017.8,N
1500246495.3,286047018.5,N
1500246515.1,286047017.3,N
1500246535.9,286047017.7,N
1500246555.7,286047019.6,N
1500246575.5,286047018.9,N
1500246595.4,286047021.8,N
1500246615.2,286047019.0,N
1500246635.1,286047019.3,N
1500246636.0,286047019.3,N
1500246655.8,286047023.1,N
1500246675.6,286047024.8,N
1500246695.5,286047022.2,N
1500246715.3,286047024.9,N
1500246735.1,286047024.3,N
1500246755.9,286047024.5,N
1500246775.7,286047025.0,N
1500246795.6,286047022.3,N
1500246815.4,286047022.2,N
1500246835.2,286047022.7,N
1500246855.1,286047023.0,N
1500246856.0,286047023.0,N
1500246875.8,286047022.3,N
1500246895.7,286047022.9,N
1500246915.5,286047022.8,N
1500246935.3,286047020.5,N
1500246955.2,286047022.9,N
1500246975.0,286047023.3,N
1500246975.9,286047023.3,N
1500246995.7,286047021.4,N
1500247015.6,286047023.6,N
1500247035.4,286047022.3,N
1500247055.3,286047023.0,N
1500247075.1,286047023.4,N
1500247095.8,286047023.1,N
1500247115.7,286047023.5,N
1500247135.5,286047020.5,N
1500247155.3,286047023.4,N
1500247175.2,286047022.8,N
1500247195.0,286047024.8,N
1500247195.9,286047024.8,N
1500247215.8,286047023.4,N
1500247235.6,286047023.1,N
1500247255.4,286047022.5,N
1500247275.3,286047025.1,N
1500247295.1,286047025.1,N
1500247315.9,286047024.1,N
1500247335.7,286047025.3,N
1500247355.5,286047023.8,N
1500247375.4,286047028.4,N
1500247395.2,286047025.9,N
1500247415.0,286047028.4,N
1500247415.9,286047028.4,N
1500247435.8,286047027.3,N
1500247455.6,286047027.6,N
1500247475.5,286047027.2,N
1500247495.3,286047029.5,N
1500247515.1,286047028.8,N
1500247535.9,286047031.5,N
1500247555.7,286047031.6,N
1500247575.5,286047028.8,N
1500247595.4,286047028.9,N
1500247615.2,286047029.9,N
1500247635.1,286047030.6,N
1500247636.0,286047030.6,N
1500247655.8,286047032.8,N
1500247675.6,286047030.1,N
1500247695.5,286047030.8,N
1500247715.3,286047028.7,N
1500247735.1,286047028.5,N
1500247755.9,286047028.5,N
1500247775.7,286047028.7,N
1500247795.6,286047031.4,N
1500247815.4,286047030.9,N
1500247835.2,286047029.0,N
1500247855.1,286047029.0,N
1500247856.0,286047029.0,N
1500247875.8,286047029.0,N
1500247895.6,286047031.5,N
1500247915.5,286047028.7,N
1500247935.3,286047028.7,N
1500247955.2,286047030.7,N
1500247975.9,286047030.3,N
1500247995.7,286047033.0,N
1500248015.6,286047032.1,N
1500248035.4,286047034.4,N
1500248055.2,286047031.7,N
1500248075.1,286047034.0,N
1500248076.0,286047034.0,N
1500248095.8,286047033.6,N
1500248115.7,286047034.1,N
1500248135.5,286047033.6,N
1500248155.3,286047036.4,N
1500248175.2,286047036.2,N
1500248195.0,286047034.1,N
1500248195.9,286047034.1,N
1500248215.7,286047034.0,N
1500248235.6,286047035.2,N
1500248255.4,286047034.5,N
1500248275.3,286047033.4,N
1500248295.1,286047035.7,N
1500248296.0,286047035.7,N
1500248315.8,286047035.6,N
1500248335.7,286047037.9,N
1500248355.5,286047038.0,N
1500248375.3,286047035.8,N
1500248395.2,286047036.0,N
1500248415.0,286047036.2,N
1500248415.9,286047036.2,N
1500248435.8,286047036.4,N
1500248455.6,286047034.5,N
1500248475.4,286047035.9,N
1500248495.3,286047033.3,N
1500248515.1,286047036.1,N
1500248535.9,286047035.8,N
1500248555.7,286047034.1,N
1500248575.5,286047034.2,N
1500248595.4,286047033.5,N
1500248615.2,286047034.4,N
1500248635.0,286047032.2,N
1500248635.9,286047032.2,N
1500248655.8,286047032.8,N
1500248675.6,286047030.4,N
1500248695.5,286047033.2,N
1500248715.3,286047031.3,N
1500248735.1,286047029.4,N
1500248755.9,286047029.2,N
1500248775.7,286047031.4,N
1500248795.5,286047032.5,N
1500248815.4,286047031.0,N
1500248835.2,286047033.0,N
1500248855.1,286047033.1,N
1500248856.0,286047033.1,N
1500248875.8,286047032.7,N
1500248895.6,286047032.7,N
1500248915.5,286047030.2,N
1500248935.3,286047033.1,N
1500248955.1,286047031.8,N
1500248975.9,286047031.8,N
1500248995.7,286047034.0,N
1500249015.6,286047034.5,N
1500249035.4,286047034.2,N
1500249055.2,286047032.4,N
1500249075.1,286047032.4,N
1500249076.0,286047032.4,N
1500249095.8,286047033.0,N
1500249115.6,286047033.2,N
1500249135.5,286047034.7,N
1500249155.3,286047032.2,N
1500249175.2,286047032.3,N
1500249195.9,286047032.0,N
1500249215.7,286047032.5,N
1500249235.6,286047031.7,N
1500249255.4,286047034.1,N
1500249275.2,286047038.0,N
1500249295.1,286047035.9,N
1500249296.0,286047035.9,N
1500249315.8,286047036.1,N
1500249335.7,286047036.2,N
1500249355.5,286047037.5,N
1500249375.3,286047038.0,N
1500249395.2,286047037.1,N
1500249415.0,286047036.8,N
1500249415.9,286047036.8,N
1500249435.7,286047036.9,N
1500249455.6,286047036.9,N
1500249475.4,286047037.0,N
1500249495.3,286047039.2,N
1500249515.1,286047038.7,N
1500249516.0,286047038.7,N
1500249535.8,286047038.1,N
1500249555.7,286047038.9,N
1500249575.5,286047038.3,N
1500249595.3,286047040.9,N
